Weather History for Mosby, MO

Change the Weather History Date:

Saturday, January 5, 2013

  Actual Average (KMKC) Record (KMKC)
Temperature  
Mean Temperature 35 °F -  
Max Temperature 42 °F 38 °F 66 °F (2012)
Min Temperature 28 °F 21 °F 0 °F (2014)
Degree Days  
Heating Degree Days 30    
Moisture  
Dew Point 29 °F    
Average Humidity 77    
Maximum Humidity 87    
Minimum Humidity 66    
Precipitation  
Precipitation 0.00 in - - ()
Sea Level Pressure  
Sea Level Pressure 30.15 in    
Wind  
Wind Speed 4 mph (SW)    
Max Wind Speed 17 mph    
Max Gust Speed 25 mph    
Visibility 10 miles    
Events      
Averages and records for this station are not official NWS values.
T = Trace of Precipitation, MM = Missing Value Source: NWS Daily Summary

Daily Weather History Graph

Daily Weather History Graph

Search for Another Location

Airport:

Trip Planner

Search our weather history database for the weather conditions in past years. The results will help you decide how hot, cold, wet, or windy it might be!

Date:

Astronomy

Jan. 05, 2013 Rise Set
Actual Time 7:37 AM CST 5:08 PM CST
Civil Twilight 7:07 AM CST 5:38 PM CST
Nautical Twilight 6:34 AM CST 6:11 PM CST
Astronomical Twilight 6:01 AM CST 6:44 PM CST
Moon 12:45 AM CST (1/5) 11:57 AM CST (1/5)
Length of Visible Light 10h 30m
Length of Day
9h 31m
Last Quarter, 44% of the Moon is Illuminated
Jan 5
Last Quarter
Jan 11
New
Jan 18
First Quarter
Jan 26
Full
Feb 3
Last Quarter

Hourly Weather History & Observations

Time (CST) Temp. Windchill Dew Point Humidity Pressure Visibility Wind Dir Wind Speed Gust Speed Precip Events Conditions
12:15 AM 32.0 °F - 26.6 °F 80% 30.23 in 10.0 mi Calm Calm - N/A   Unknown
12:55 AM 32.0 °F - 26.6 °F 80% 30.22 in 10.0 mi Calm Calm - N/A   Clear
1:15 AM 32.0 °F 28.7 °F 26.6 °F 80% 30.22 in 10.0 mi SSE 3.5 mph - N/A   Clear
1:35 AM 32.0 °F - 24.8 °F 75% 30.22 in 10.0 mi Calm Calm - N/A   Clear
1:55 AM 32.0 °F - 24.8 °F 75% 30.22 in 10.0 mi Calm Calm - N/A   Clear
2:15 AM 32.0 °F - 24.8 °F 75% 30.22 in 10.0 mi Calm Calm - N/A   Mostly Cloudy
2:35 AM 32.0 °F - 24.8 °F 75% 30.22 in 10.0 mi Calm Calm - N/A   Scattered Clouds
2:55 AM 32.0 °F - 26.6 °F 80% 30.22 in 10.0 mi Calm Calm - N/A   Clear
3:15 AM 32.0 °F - 24.8 °F 75% 30.22 in 10.0 mi Calm Calm - N/A   Clear
3:35 AM 30.2 °F - 24.8 °F 80% 30.21 in 10.0 mi Calm Calm - N/A   Clear
4:15 AM 28.4 °F - 23.0 °F 80% 30.21 in 10.0 mi Calm Calm - N/A   Scattered Clouds
4:35 AM 28.4 °F - 23.0 °F 80% 30.19 in 10.0 mi Calm Calm - N/A   Mostly Cloudy
4:55 AM 28.4 °F - 23.0 °F 80% 30.19 in 10.0 mi Calm Calm - N/A   Scattered Clouds
5:15 AM 28.4 °F - 23.0 °F 80% 30.19 in 10.0 mi Calm Calm - N/A   Scattered Clouds
5:35 AM 28.4 °F - 23.0 °F 80% 30.19 in 10.0 mi Calm Calm - N/A   Mostly Cloudy
6:15 AM 32.0 °F 26.4 °F 28.4 °F 87% 30.19 in 10.0 mi South 5.8 mph - N/A   Overcast
6:35 AM 33.8 °F 27.7 °F 28.4 °F 81% 30.19 in 10.0 mi South 6.9 mph - N/A   Overcast
6:55 AM 35.6 °F 31.7 °F 28.4 °F 75% 30.19 in 10.0 mi South 4.6 mph - N/A   Overcast
7:15 AM 33.8 °F 29.6 °F 28.4 °F 81% 30.19 in 10.0 mi SSE 4.6 mph - N/A   Scattered Clouds
7:35 AM 33.8 °F 29.6 °F 28.4 °F 81% 30.19 in 10.0 mi SSE 4.6 mph - N/A   Mostly Cloudy
7:55 AM 32.0 °F 27.5 °F 28.4 °F 87% 30.19 in 10.0 mi ESE 4.6 mph - N/A   Overcast
8:15 AM 33.8 °F - 28.4 °F 81% 30.19 in 10.0 mi Calm Calm - N/A   Overcast
8:35 AM 35.6 °F 31.7 °F 30.2 °F 81% 30.19 in 10.0 mi South 4.6 mph - N/A   Overcast
9:15 AM 35.6 °F 29.2 °F 30.2 °F 81% 30.19 in 10.0 mi South 8.1 mph - N/A   Mostly Cloudy
9:35 AM 35.6 °F 29.9 °F 32.0 °F 87% 30.19 in 10.0 mi South 6.9 mph - N/A   Scattered Clouds
9:55 AM 35.6 °F 29.9 °F 32.0 °F 87% 30.19 in 10.0 mi South 6.9 mph - N/A   Mostly Cloudy
10:15 AM 35.6 °F 29.9 °F 32.0 °F 87% 30.19 in 10.0 mi South 6.9 mph - N/A   Overcast
10:55 AM 37.4 °F 30.8 °F 32.0 °F 81% 30.17 in 10.0 mi SSW 9.2 mph - N/A   Overcast
11:15 AM 37.4 °F 30.3 °F 32.0 °F 81% 30.16 in 10.0 mi SSW 10.4 mph - N/A   Mostly Cloudy
11:35 AM 37.4 °F 30.3 °F 32.0 °F 81% 30.15 in 10.0 mi SSW 10.4 mph - N/A   Scattered Clouds
11:55 AM 39.2 °F 32.0 °F 32.0 °F 75% 30.14 in 10.0 mi SSW 11.5 mph - N/A   Scattered Clouds
12:15 PM 37.4 °F 28.9 °F 32.0 °F 81% 30.12 in 10.0 mi SSW 13.8 mph - N/A   Light Drizzle
12:35 PM 39.2 °F 32.0 °F 32.0 °F 75% 30.11 in 10.0 mi SSW 11.5 mph - N/A   Mostly Cloudy
12:55 PM 41.0 °F 33.9 °F 32.0 °F 70% 30.10 in 10.0 mi SSW 12.7 mph 16.1 mph N/A   Scattered Clouds
1:15 PM 41.0 °F 34.7 °F 32.0 °F 70% 30.08 in 10.0 mi SSW 10.4 mph 21.9 mph N/A   Scattered Clouds
1:35 PM 42.8 °F 34.8 °F 32.0 °F 66% 30.07 in 10.0 mi SW 17.3 mph 25.3 mph N/A   Clear
1:55 PM 42.8 °F 35.4 °F 32.0 °F 66% 30.06 in 10.0 mi SW 15.0 mph 23.0 mph N/A   Scattered Clouds
2:15 PM 42.8 °F 35.1 °F 32.0 °F 66% 30.05 in 10.0 mi SW 16.1 mph 21.9 mph N/A   Mostly Cloudy
2:35 PM 42.8 °F 35.1 °F 32.0 °F 66% 30.06 in 10.0 mi SW 16.1 mph 20.7 mph N/A   Overcast
2:55 PM 42.8 °F 37.0 °F 32.0 °F 66% 30.06 in 10.0 mi SW 10.4 mph 18.4 mph N/A   Overcast
3:15 PM 42.8 °F 36.6 °F 32.0 °F 66% 30.05 in 10.0 mi SW 11.5 mph 17.3 mph N/A   Overcast
3:35 PM 42.8 °F 36.6 °F 32.0 °F 66% 30.06 in 10.0 mi SW 11.5 mph - N/A   Mostly Cloudy
3:55 PM 42.8 °F 38.0 °F 32.0 °F 66% 30.06 in 10.0 mi SW 8.1 mph - N/A   Mostly Cloudy
4:15 PM 42.8 °F 37.5 °F 32.0 °F 66% 30.07 in 10.0 mi SW 9.2 mph - N/A   Overcast
4:35 PM 42.8 °F 38.6 °F 32.0 °F 66% 30.06 in 10.0 mi SSW 6.9 mph - N/A   Overcast
5:15 PM 41.0 °F 35.8 °F 32.0 °F 70% 30.07 in 10.0 mi SSW 8.1 mph - N/A   Scattered Clouds
5:35 PM 41.0 °F 38.0 °F 32.0 °F 70% 30.07 in 10.0 mi South 4.6 mph - N/A   Clear
5:55 PM 39.2 °F - 32.0 °F 75% 30.08 in 10.0 mi Calm Calm - N/A   Mostly Cloudy
6:15 PM 39.2 °F 35.9 °F 32.0 °F 75% 30.07 in 10.0 mi SSW 4.6 mph - N/A   Mostly Cloudy
6:35 PM 39.2 °F 35.9 °F 32.0 °F 75% 30.09 in 10.0 mi WSW 4.6 mph - N/A   Clear
6:55 PM 39.2 °F 35.0 °F 32.0 °F 75% 30.10 in 10.0 mi West 5.8 mph - N/A   Unknown
7:15 PM 37.4 °F 32.1 °F 32.0 °F 81% 30.11 in 10.0 mi West 6.9 mph - N/A   Clear
7:35 PM 37.4 °F 29.8 °F 32.0 °F 81% 30.11 in 10.0 mi West 11.5 mph 20.7 mph N/A   Clear
7:55 PM 37.4 °F 29.3 °F 30.2 °F 75% 30.12 in 10.0 mi West 12.7 mph 17.3 mph N/A   Clear
8:15 PM 35.6 °F 28.6 °F 28.4 °F 75% 30.12 in 10.0 mi WNW 9.2 mph - N/A   Clear
8:55 PM 33.8 °F 30.8 °F 28.4 °F 81% 30.13 in 10.0 mi WNW 3.5 mph - N/A   Clear
9:15 PM 33.8 °F 28.6 °F 26.6 °F 75% 30.14 in 10.0 mi West 5.8 mph - N/A   Clear
9:35 PM 33.8 °F 29.6 °F 26.6 °F 75% 30.14 in 10.0 mi West 4.6 mph - N/A   Clear
9:55 PM 32.0 °F 27.5 °F 26.6 °F 80% 30.15 in 10.0 mi West 4.6 mph - N/A   Clear
10:15 PM 32.0 °F 27.5 °F 26.6 °F 80% 30.15 in 10.0 mi West 4.6 mph - N/A   Clear
10:35 PM 32.0 °F 27.5 °F 26.6 °F 80% 30.15 in 10.0 mi West 4.6 mph - N/A   Clear
10:55 PM 32.0 °F 27.5 °F 26.6 °F 80% 30.15 in 10.0 mi West 4.6 mph - N/A   Clear
11:15 PM 32.0 °F 27.5 °F 24.8 °F 75% 30.15 in 10.0 mi West 4.6 mph - N/A   Unknown
11:35 PM 32.0 °F 27.5 °F 24.8 °F 75% 30.15 in 10.0 mi West 4.6 mph - N/A   Unknown
11:55 PM 32.0 °F 26.4 °F 24.8 °F 75% 30.15 in 10.0 mi West 5.8 mph - N/A   Clear